EST,Max TemperatureF,Mean TemperatureF,Min TemperatureF,Max Dew PointF,MeanDew PointF,Min DewpointF,Max Humidity, Mean Humidity, Min Humidity, Max Sea Level PressureIn, Mean Sea Level PressureIn, Min Sea Level PressureIn, Max VisibilityMiles, Mean VisibilityMiles, Min VisibilityMiles, Max Wind SpeedMPH, Mean Wind SpeedMPH, Max Gust SpeedMPH,PrecipitationIn, CloudCover, Events, WindDirDegrees
2013-11-1,73,63,53,61,58,48,100,81,53,29.91,29.80,29.71,10,10,4,20,9,31,0.05,5,Rain,207
2013-11-2,66,56,46,46,38,32,82,56,34,30.04,29.87,29.78,10,10,10,15,3,28,0.00,1,,291
2013-11-3,59,48,37,36,32,32,81,60,36,30.41,30.24,30.04,10,10,10,12,3,18,0.00,1,,345
2013-11-4,53,40,28,32,30,27,100,68,38,30.59,30.53,30.43,10,10,10,7,1,,0.00,0,,82
2013-11-5,55,42,30,48,37,28,100,78,54,30.63,30.55,30.50,10,9,3,6,1,,0.02,4,Rain,73
2013-11-6,62,53,42,50,48,43,100,89,63,30.49,30.35,30.19,10,7,0,5,0,,0.03,5,Fog,250
2013-11-7,62,52,41,54,40,28,100,77,44,30.22,30.12,30.04,10,9,1,21,3,30,0.00,3,Rain,311
2013-11-8,53,42,30,30,24,19,80,52,28,30.37,30.31,30.22,10,10,10,14,5,21,0.00,0,,324
2013-11-9,55,40,26,30,27,23,93,63,33,30.41,30.33,30.23,10,10,10,13,2,,0.00,0,,242
2013-11-10,68,50,32,36,29,21,93,50,24,30.32,30.23,30.17,10,10,10,15,4,29,0.00,0,,298
2013-11-11,60,43,26,28,23,18,86,49,21,30.40,30.28,30.19,10,10,10,6,2,,0.00,0,,229
2013-11-12,59,44,30,36,25,12,87,56,36,30.51,30.25,30.09,10,10,10,20,6,28,0.00,3,,330
2013-11-13,46,35,24,19,14,10,74,46,23,30.56,30.51,30.47,10,10,10,9,4,16,0.00,0,,353
2013-11-14,60,40,21,23,18,12,86,51,17,30.49,30.41,30.35,10,10,10,7,1,,0.00,0,,201
2013-11-15,55,40,26,46,31,21,100,70,37,30.37,30.31,30.25,10,9,2,4,0,,0.09,4,Rain,265
2013-11-16,53,48,44,52,48,45,100,97,88,30.34,30.29,30.26,10,4,1,4,0,,0.01,8,,91
2013-11-17,57,54,50,55,53,50,100,99,94,30.27,30.13,29.95,7,3,0,6,0,,0.22,8,Fog-Rain,231
2013-11-18,68,57,46,59,42,23,100,61,26,30.08,29.97,29.89,10,9,3,16,5,30,0.11,2,Rain,290
2013-11-19,53,42,32,28,24,19,75,48,26,30.34,30.19,30.07,10,10,10,15,5,26,0.00,0,,20
2013-11-20,46,39,32,32,27,25,81,64,46,30.53,30.44,30.33,10,10,2,9,4,,0.00,1,,55
2013-11-21,50,44,37,43,37,28,87,77,65,30.55,30.50,30.44,10,10,7,6,0,,0.00,8,,80
2013-11-22,59,52,44,54,50,45,100,94,82,30.45,30.30,30.17,10,8,2,8,1,,0.00,8,Rain,219
2013-11-23,55,44,33,54,33,10,100,57,29,30.28,30.19,30.15,10,10,10,18,7,30,0.00,2,,309
2013-11-24,35,29,23,16,5,-4,50,35,18,30.55,30.44,30.29,10,10,10,20,10,26,0.00,0,,347
2013-11-25,33,26,19,28,12,5,87,52,32,30.56,30.49,30.39,10,10,7,7,1,,0.00,3,Rain,210
2013-11-26,39,36,32,39,33,27,100,98,80,30.38,30.03,29.67,10,3,0,6,1,,2.92,8,Rain-Snow-Thunderstorm,41
2013-11-27,41,34,26,41,25,10,100,71,47,30.22,29.85,29.61,10,9,3,23,6,33,0.08,6,Rain-Snow,311
2013-11-28,42,30,19,21,15,12,80,55,31,30.49,30.39,30.22,10,10,10,9,2,,0.00,0,,290
2013-11-29,50,36,21,27,22,19,100,65,35,30.66,30.56,30.49,10,10,10,8,1,,0.00,0,,82
2013-11-30,42,32,21,25,21,19,93,67,42,30.69,30.57,30.41,10,10,7,5,1,,0.00,0,,58